#datetime,building,power
2022-03-20T00:00:00,rvs,17.08
2022-03-20T00:01:00,rvs,16.87
2022-03-20T00:02:00,rvs,11.01
2022-03-20T00:03:00,rvs,10.88
2022-03-20T00:04:00,rvs,10.79
2022-03-20T00:05:00,rvs,10.64
2022-03-20T00:06:00,rvs,10.06
2022-03-20T00:07:00,rvs,9.94
2022-03-20T00:08:00,rvs,9.95
2022-03-20T00:09:00,rvs,9.96
2022-03-20T00:10:00,rvs,10.22
2022-03-20T00:11:00,rvs,10.15
2022-03-20T00:12:00,rvs,10.12
2022-03-20T00:13:00,rvs,10.18
2022-03-20T00:14:00,rvs,10.42
2022-03-20T00:15:00,rvs,10.52
2022-03-20T00:16:00,rvs,10.60
2022-03-20T00:17:00,rvs,10.51
2022-03-20T00:18:00,rvs,10.64
2022-03-20T00:19:00,rvs,15.01
2022-03-20T00:20:00,rvs,15.02
2022-03-20T00:21:00,rvs,15.30
2022-03-20T00:22:00,rvs,15.09
2022-03-20T00:23:00,rvs,10.60
2022-03-20T00:24:00,rvs,10.56
2022-03-20T00:25:00,rvs,9.97
2022-03-20T00:26:00,rvs,12.31
2022-03-20T00:27:00,rvs,14.17
2022-03-20T00:28:00,rvs,14.60
2022-03-20T00:29:00,rvs,15.07
2022-03-20T00:30:00,rvs,15.55
2022-03-20T00:31:00,rvs,14.71
2022-03-20T00:32:00,rvs,14.41
2022-03-20T00:33:00,rvs,10.00
2022-03-20T00:34:00,rvs,10.47
2022-03-20T00:35:00,rvs,10.57
2022-03-20T00:36:00,rvs,10.32
2022-03-20T00:37:00,rvs,10.39
2022-03-20T00:38:00,rvs,10.59
2022-03-20T00:39:00,rvs,10.45
2022-03-20T00:40:00,rvs,10.55
2022-03-20T00:41:00,rvs,10.67
2022-03-20T00:42:00,rvs,10.50
2022-03-20T00:43:00,rvs,10.66
2022-03-20T00:44:00,rvs,10.45
2022-03-20T00:45:00,rvs,10.36
2022-03-20T00:46:00,rvs,10.38
2022-03-20T00:47:00,rvs,10.32
2022-03-20T00:48:00,rvs,10.76
2022-03-20T00:49:00,rvs,10.55
2022-03-20T00:50:00,rvs,10.51
2022-03-20T00:51:00,rvs,10.39
2022-03-20T00:52:00,rvs,10.28
2022-03-20T00:53:00,rvs,12.76
2022-03-20T00:54:00,rvs,14.23
2022-03-20T00:55:00,rvs,15.48
2022-03-20T00:56:00,rvs,16.60
2022-03-20T00:57:00,rvs,17.04
2022-03-20T00:58:00,rvs,16.23
2022-03-20T00:59:00,rvs,16.22
2022-03-20T01:00:00,rvs,15.86
2022-03-20T01:01:00,rvs,18.70
2022-03-20T01:02:00,rvs,27.10
2022-03-20T01:03:00,rvs,34.82
2022-03-20T01:04:00,rvs,28.74
2022-03-20T01:05:00,rvs,21.00
2022-03-20T01:06:00,rvs,20.77
2022-03-20T01:07:00,rvs,22.78
2022-03-20T01:08:00,rvs,31.96
2022-03-20T01:09:00,rvs,32.70
2022-03-20T01:10:00,rvs,40.14
2022-03-20T01:11:00,rvs,45.92
2022-03-20T01:12:00,rvs,43.16
2022-03-20T01:13:00,rvs,47.50
2022-03-20T01:14:00,rvs,31.55
2022-03-20T01:15:00,rvs,40.09
2022-03-20T01:16:00,rvs,39.82
2022-03-20T01:17:00,rvs,30.62
2022-03-20T01:18:00,rvs,31.49
2022-03-20T01:19:00,rvs,38.58
2022-03-20T01:20:00,rvs,26.66
2022-03-20T01:21:00,rvs,20.51
2022-03-20T01:22:00,rvs,21.82
2022-03-20T01:23:00,rvs,31.68
2022-03-20T01:24:00,rvs,31.78
2022-03-20T01:25:00,rvs,24.23
2022-03-20T01:26:00,rvs,20.98
2022-03-20T01:27:00,rvs,20.75
2022-03-20T01:28:00,rvs,21.38
2022-03-20T01:29:00,rvs,27.56
2022-03-20T01:30:00,rvs,19.89
2022-03-20T01:31:00,rvs,19.37
2022-03-20T01:32:00,rvs,19.54
2022-03-20T01:33:00,rvs,19.66
2022-03-20T01:34:00,rvs,19.30
2022-03-20T01:35:00,rvs,19.12
2022-03-20T01:36:00,rvs,19.29
2022-03-20T01:37:00,rvs,13.99
2022-03-20T01:38:00,rvs,13.61
2022-03-20T01:39:00,rvs,13.90
2022-03-20T01:40:00,rvs,13.90
2022-03-20T01:41:00,rvs,14.12
2022-03-20T01:42:00,rvs,14.10
2022-03-20T01:43:00,rvs,13.75
2022-03-20T01:44:00,rvs,12.95
2022-03-20T01:45:00,rvs,9.31
2022-03-20T01:46:00,rvs,9.42
2022-03-20T01:47:00,rvs,9.41
2022-03-20T01:48:00,rvs,9.52
2022-03-20T01:49:00,rvs,9.69
2022-03-20T01:50:00,rvs,9.33
2022-03-20T01:51:00,rvs,9.13
2022-03-20T01:52:00,rvs,9.05
2022-03-20T01:53:00,rvs,9.09
2022-03-20T01:54:00,rvs,8.99
2022-03-20T01:55:00,rvs,9.05
2022-03-20T01:56:00,rvs,9.30
2022-03-20T01:57:00,rvs,9.14
2022-03-20T01:58:00,rvs,9.39
2022-03-20T01:59:00,rvs,9.28
2022-03-20T02:00:00,rvs,9.95
2022-03-20T02:01:00,rvs,10.07
2022-03-20T02:02:00,rvs,10.06
2022-03-20T02:03:00,rvs,10.10
2022-03-20T02:04:00,rvs,10.49
2022-03-20T02:05:00,rvs,14.80
2022-03-20T02:06:00,rvs,14.70
2022-03-20T02:07:00,rvs,14.58
2022-03-20T02:08:00,rvs,14.56
2022-03-20T02:09:00,rvs,10.12
2022-03-20T02:10:00,rvs,10.13
2022-03-20T02:11:00,rvs,10.02
2022-03-20T02:12:00,rvs,10.03
2022-03-20T02:13:00,rvs,10.19
2022-03-20T02:14:00,rvs,10.12
2022-03-20T02:15:00,rvs,10.18
2022-03-20T02:16:00,rvs,10.08
2022-03-20T02:17:00,rvs,10.18
2022-03-20T02:18:00,rvs,9.96
2022-03-20T02:19:00,rvs,9.84
2022-03-20T02:20:00,rvs,10.72
2022-03-20T02:21:00,rvs,13.80
2022-03-20T02:22:00,rvs,14.30
2022-03-20T02:23:00,rvs,15.08
2022-03-20T02:24:00,rvs,15.94
2022-03-20T02:25:00,rvs,15.19
2022-03-20T02:26:00,rvs,14.42
2022-03-20T02:27:00,rvs,14.70
2022-03-20T02:28:00,rvs,14.48
2022-03-20T02:29:00,rvs,14.28
2022-03-20T02:30:00,rvs,9.93
2022-03-20T02:31:00,rvs,10.09
2022-03-20T02:32:00,rvs,10.00
2022-03-20T02:33:00,rvs,10.20
2022-03-20T02:34:00,rvs,10.21
2022-03-20T02:35:00,rvs,10.18
2022-03-20T02:36:00,rvs,10.24
2022-03-20T02:37:00,rvs,10.33
2022-03-20T02:38:00,rvs,10.33
2022-03-20T02:39:00,rvs,10.31
2022-03-20T02:40:00,rvs,10.11
2022-03-20T02:41:00,rvs,10.12
2022-03-20T02:42:00,rvs,10.17
2022-03-20T02:43:00,rvs,10.18
2022-03-20T02:44:00,rvs,10.02
2022-03-20T02:45:00,rvs,10.02
2022-03-20T02:46:00,rvs,10.05
2022-03-20T02:47:00,rvs,10.04
2022-03-20T02:48:00,rvs,9.98
2022-03-20T02:49:00,rvs,9.88
2022-03-20T02:50:00,rvs,10.17
2022-03-20T02:51:00,rvs,10.18
2022-03-20T02:52:00,rvs,10.04
2022-03-20T02:53:00,rvs,10.02
2022-03-20T02:54:00,rvs,10.12
2022-03-20T02:55:00,rvs,9.98
2022-03-20T02:56:00,rvs,10.04
2022-03-20T02:57:00,rvs,10.04
2022-03-20T02:58:00,rvs,9.93
2022-03-20T02:59:00,rvs,10.07
2022-03-20T03:00:00,rvs,10.01
2022-03-20T03:01:00,rvs,10.01
2022-03-20T03:02:00,rvs,14.42
2022-03-20T03:03:00,rvs,17.69
2022-03-20T03:04:00,rvs,19.12
2022-03-20T03:05:00,rvs,15.02
2022-03-20T03:06:00,rvs,19.54
2022-03-20T03:07:00,rvs,20.68
2022-03-20T03:08:00,rvs,21.16
2022-03-20T03:09:00,rvs,20.93
2022-03-20T03:10:00,rvs,21.73
2022-03-20T03:11:00,rvs,20.58
2022-03-20T03:12:00,rvs,19.63
2022-03-20T03:13:00,rvs,19.51
2022-03-20T03:14:00,rvs,19.85
2022-03-20T03:15:00,rvs,14.60
2022-03-20T03:16:00,rvs,14.88
2022-03-20T03:17:00,rvs,9.88
2022-03-20T03:18:00,rvs,9.80
2022-03-20T03:19:00,rvs,9.93
2022-03-20T03:20:00,rvs,10.07
2022-03-20T03:21:00,rvs,10.00
2022-03-20T03:22:00,rvs,9.97
2022-03-20T03:23:00,rvs,9.97
2022-03-20T03:24:00,rvs,9.92
2022-03-20T03:25:00,rvs,9.80
2022-03-20T03:26:00,rvs,9.70
2022-03-20T03:27:00,rvs,10.04
2022-03-20T03:28:00,rvs,13.09
2022-03-20T03:29:00,rvs,17.86
2022-03-20T03:30:00,rvs,20.75
2022-03-20T03:31:00,rvs,19.66
2022-03-20T03:32:00,rvs,28.02
2022-03-20T03:33:00,rvs,28.82
2022-03-20T03:34:00,rvs,31.45
2022-03-20T03:35:00,rvs,27.18
2022-03-20T03:36:00,rvs,30.98
2022-03-20T03:37:00,rvs,32.49
2022-03-20T03:38:00,rvs,32.99
2022-03-20T03:39:00,rvs,21.18
2022-03-20T03:40:00,rvs,24.53
2022-03-20T03:41:00,rvs,25.35
2022-03-20T03:42:00,rvs,19.35
2022-03-20T03:43:00,rvs,18.83
2022-03-20T03:44:00,rvs,22.73
2022-03-20T03:45:00,rvs,27.65
2022-03-20T03:46:00,rvs,28.89
2022-03-20T03:47:00,rvs,29.53
2022-03-20T03:48:00,rvs,22.48
2022-03-20T03:49:00,rvs,18.93
2022-03-20T03:50:00,rvs,25.16
2022-03-20T03:51:00,rvs,26.19
2022-03-20T03:52:00,rvs,25.54
2022-03-20T03:53:00,rvs,26.27
2022-03-20T03:54:00,rvs,22.12
2022-03-20T03:55:00,rvs,22.02
2022-03-20T03:56:00,rvs,21.31
2022-03-20T03:57:00,rvs,21.57
2022-03-20T03:58:00,rvs,20.79
2022-03-20T03:59:00,rvs,23.39
2022-03-20T04:00:00,rvs,23.42
2022-03-20T04:01:00,rvs,25.03
2022-03-20T04:02:00,rvs,21.99
2022-03-20T04:03:00,rvs,20.60
2022-03-20T04:04:00,rvs,20.36
2022-03-20T04:05:00,rvs,19.75
2022-03-20T04:06:00,rvs,18.08
2022-03-20T04:07:00,rvs,14.04
2022-03-20T04:08:00,rvs,14.34
2022-03-20T04:09:00,rvs,17.95
2022-03-20T04:10:00,rvs,18.86
2022-03-20T04:11:00,rvs,21.28
2022-03-20T04:12:00,rvs,21.79
2022-03-20T04:13:00,rvs,19.08
2022-03-20T04:14:00,rvs,17.77
2022-03-20T04:15:00,rvs,13.76
2022-03-20T04:16:00,rvs,9.59
2022-03-20T04:17:00,rvs,9.49
2022-03-20T04:18:00,rvs,22.80
2022-03-20T04:19:00,rvs,22.61
2022-03-20T04:20:00,rvs,22.53
2022-03-20T04:21:00,rvs,9.74
2022-03-20T04:22:00,rvs,9.74
2022-03-20T04:23:00,rvs,9.81
2022-03-20T04:24:00,rvs,12.32
2022-03-20T04:25:00,rvs,13.35
2022-03-20T04:26:00,rvs,14.46
2022-03-20T04:27:00,rvs,15.77
2022-03-20T04:28:00,rvs,16.63
2022-03-20T04:29:00,rvs,14.97
2022-03-20T04:30:00,rvs,15.16
2022-03-20T04:31:00,rvs,14.48
2022-03-20T04:32:00,rvs,14.60
2022-03-20T04:33:00,rvs,13.79
2022-03-20T04:34:00,rvs,13.47
2022-03-20T04:35:00,rvs,15.30
2022-03-20T04:36:00,rvs,15.50
2022-03-20T04:37:00,rvs,14.22
2022-03-20T04:38:00,rvs,14.07
2022-03-20T04:39:00,rvs,14.45
2022-03-20T04:40:00,rvs,14.81
2022-03-20T04:41:00,rvs,14.87
2022-03-20T04:42:00,rvs,14.62
2022-03-20T04:43:00,rvs,15.00
2022-03-20T04:44:00,rvs,9.44
2022-03-20T04:45:00,rvs,12.35
2022-03-20T04:46:00,rvs,17.83
2022-03-20T04:47:00,rvs,18.76
2022-03-20T04:48:00,rvs,20.51
2022-03-20T04:49:00,rvs,19.67
2022-03-20T04:50:00,rvs,15.43
2022-03-20T04:51:00,rvs,14.52
2022-03-20T04:52:00,rvs,14.38
2022-03-20T04:53:00,rvs,15.96
2022-03-20T04:54:00,rvs,16.03
2022-03-20T04:55:00,rvs,15.03
2022-03-20T04:56:00,rvs,15.02
2022-03-20T04:57:00,rvs,15.46
2022-03-20T04:58:00,rvs,15.80
2022-03-20T04:59:00,rvs,9.52
2022-03-20T05:00:00,rvs,9.50
2022-03-20T05:01:00,rvs,9.43
2022-03-20T05:02:00,rvs,9.42
2022-03-20T05:03:00,rvs,9.50
2022-03-20T05:04:00,rvs,9.45
2022-03-20T05:05:00,rvs,9.24
2022-03-20T05:06:00,rvs,9.73
2022-03-20T05:07:00,rvs,9.67
2022-03-20T05:08:00,rvs,9.70
2022-03-20T05:09:00,rvs,9.85
2022-03-20T05:10:00,rvs,9.51
2022-03-20T05:11:00,rvs,9.37
2022-03-20T05:12:00,rvs,9.40
2022-03-20T05:13:00,rvs,12.25
2022-03-20T05:14:00,rvs,13.67
2022-03-20T05:15:00,rvs,14.28
2022-03-20T05:16:00,rvs,14.87
2022-03-20T05:17:00,rvs,16.02
2022-03-20T05:18:00,rvs,14.96
2022-03-20T05:19:00,rvs,14.36
2022-03-20T05:20:00,rvs,14.08
2022-03-20T05:21:00,rvs,14.43
2022-03-20T05:22:00,rvs,13.67
2022-03-20T05:23:00,rvs,13.64
2022-03-20T05:24:00,rvs,14.39
2022-03-20T05:25:00,rvs,10.35
2022-03-20T05:26:00,rvs,10.33
2022-03-20T05:27:00,rvs,10.04
2022-03-20T05:28:00,rvs,10.50
2022-03-20T05:29:00,rvs,10.47
2022-03-20T05:30:00,rvs,10.42
2022-03-20T05:31:00,rvs,13.14
2022-03-20T05:32:00,rvs,14.56
2022-03-20T05:33:00,rvs,14.82
2022-03-20T05:34:00,rvs,14.83
2022-03-20T05:35:00,rvs,14.97
2022-03-20T05:36:00,rvs,12.70
2022-03-20T05:37:00,rvs,13.35
2022-03-20T05:38:00,rvs,9.39
2022-03-20T05:39:00,rvs,9.45
2022-03-20T05:40:00,rvs,9.36
2022-03-20T05:41:00,rvs,9.40
2022-03-20T05:42:00,rvs,9.58
2022-03-20T05:43:00,rvs,14.06
2022-03-20T05:44:00,rvs,13.93
2022-03-20T05:45:00,rvs,13.86
2022-03-20T05:46:00,rvs,13.78
2022-03-20T05:47:00,rvs,9.20
2022-03-20T05:48:00,rvs,9.04
2022-03-20T05:49:00,rvs,9.12
2022-03-20T05:50:00,rvs,9.29
2022-03-20T05:51:00,rvs,9.96
2022-03-20T05:52:00,rvs,9.16
2022-03-20T05:53:00,rvs,8.98
2022-03-20T05:54:00,rvs,9.04
2022-03-20T05:55:00,rvs,11.76
2022-03-20T05:56:00,rvs,13.29
2022-03-20T05:57:00,rvs,13.69
2022-03-20T05:58:00,rvs,14.56
2022-03-20T05:59:00,rvs,14.98
2022-03-20T06:00:00,rvs,12.82
2022-03-20T06:01:00,rvs,13.44
2022-03-20T06:02:00,rvs,9.94
2022-03-20T06:03:00,rvs,12.94
2022-03-20T06:04:00,rvs,13.99
2022-03-20T06:05:00,rvs,15.04
2022-03-20T06:06:00,rvs,17.14
2022-03-20T06:07:00,rvs,16.76
2022-03-20T06:08:00,rvs,15.89
2022-03-20T06:09:00,rvs,17.87
2022-03-20T06:10:00,rvs,19.41
2022-03-20T06:11:00,rvs,23.70
2022-03-20T06:12:00,rvs,25.56
2022-03-20T06:13:00,rvs,26.13
2022-03-20T06:14:00,rvs,24.08
2022-03-20T06:15:00,rvs,23.80
2022-03-20T06:16:00,rvs,31.10
2022-03-20T06:17:00,rvs,33.18
2022-03-20T06:18:00,rvs,32.59
2022-03-20T06:19:00,rvs,27.64
2022-03-20T06:20:00,rvs,14.20
2022-03-20T06:21:00,rvs,14.21
2022-03-20T06:22:00,rvs,14.29
2022-03-20T06:23:00,rvs,14.39
2022-03-20T06:24:00,rvs,14.58
2022-03-20T06:25:00,rvs,14.60
2022-03-20T06:26:00,rvs,14.52
2022-03-20T06:27:00,rvs,14.30
2022-03-20T06:28:00,rvs,14.36
2022-03-20T06:29:00,rvs,14.12
2022-03-20T06:30:00,rvs,17.70
2022-03-20T06:31:00,rvs,17.89
2022-03-20T06:32:00,rvs,18.45
2022-03-20T06:33:00,rvs,19.07
2022-03-20T06:34:00,rvs,15.92
2022-03-20T06:35:00,rvs,15.49
2022-03-20T06:36:00,rvs,14.66
2022-03-20T06:37:00,rvs,15.06
2022-03-20T06:38:00,rvs,14.89
2022-03-20T06:39:00,rvs,10.29
2022-03-20T06:40:00,rvs,14.93
2022-03-20T06:41:00,rvs,15.01
2022-03-20T06:42:00,rvs,14.98
2022-03-20T06:43:00,rvs,15.05
2022-03-20T06:44:00,rvs,10.57
2022-03-20T06:45:00,rvs,10.18
2022-03-20T06:46:00,rvs,10.02
2022-03-20T06:47:00,rvs,10.00
2022-03-20T06:48:00,rvs,9.61
2022-03-20T06:49:00,rvs,9.57
2022-03-20T06:50:00,rvs,9.69
2022-03-20T06:51:00,rvs,9.25
2022-03-20T06:52:00,rvs,9.88
2022-03-20T06:53:00,rvs,9.16
2022-03-20T06:54:00,rvs,9.19
2022-03-20T06:55:00,rvs,9.21
2022-03-20T06:56:00,rvs,9.01
2022-03-20T06:57:00,rvs,9.21
2022-03-20T06:58:00,rvs,8.84
2022-03-20T06:59:00,rvs,8.94
2022-03-20T07:00:00,rvs,8.84
2022-03-20T07:01:00,rvs,8.76
2022-03-20T07:02:00,rvs,11.77
2022-03-20T07:03:00,rvs,12.99
2022-03-20T07:04:00,rvs,14.12
2022-03-20T07:05:00,rvs,15.65
2022-03-20T07:06:00,rvs,15.41
2022-03-20T07:07:00,rvs,14.34
2022-03-20T07:08:00,rvs,13.79
2022-03-20T07:09:00,rvs,13.47
2022-03-20T07:10:00,rvs,13.54
2022-03-20T07:11:00,rvs,13.63
2022-03-20T07:12:00,rvs,14.31
2022-03-20T07:13:00,rvs,14.35
2022-03-20T07:14:00,rvs,15.10
2022-03-20T07:15:00,rvs,15.24
2022-03-20T07:16:00,rvs,16.42
2022-03-20T07:17:00,rvs,16.56
2022-03-20T07:18:00,rvs,17.01
2022-03-20T07:19:00,rvs,16.74
2022-03-20T07:20:00,rvs,29.51
2022-03-20T07:21:00,rvs,26.91
2022-03-20T07:22:00,rvs,27.18
2022-03-20T07:23:00,rvs,9.23
2022-03-20T07:24:00,rvs,9.08
2022-03-20T07:25:00,rvs,9.04
2022-03-20T07:26:00,rvs,9.15
2022-03-20T07:27:00,rvs,9.16
2022-03-20T07:28:00,rvs,9.15
2022-03-20T07:29:00,rvs,9.03
2022-03-20T07:30:00,rvs,8.91
2022-03-20T07:31:00,rvs,9.30
2022-03-20T07:32:00,rvs,12.91
2022-03-20T07:33:00,rvs,14.39
2022-03-20T07:34:00,rvs,18.82
2022-03-20T07:35:00,rvs,20.23
2022-03-20T07:36:00,rvs,19.32
2022-03-20T07:37:00,rvs,19.90
2022-03-20T07:38:00,rvs,20.04
2022-03-20T07:39:00,rvs,23.40
2022-03-20T07:40:00,rvs,22.81
2022-03-20T07:41:00,rvs,25.63
2022-03-20T07:42:00,rvs,26.97
2022-03-20T07:43:00,rvs,19.27
2022-03-20T07:44:00,rvs,19.16
2022-03-20T07:45:00,rvs,21.61
2022-03-20T07:46:00,rvs,22.85
2022-03-20T07:47:00,rvs,24.01
2022-03-20T07:48:00,rvs,20.31
2022-03-20T07:49:00,rvs,23.62
2022-03-20T07:50:00,rvs,27.06
2022-03-20T07:51:00,rvs,30.04
2022-03-20T07:52:00,rvs,25.37
2022-03-20T07:53:00,rvs,25.24
2022-03-20T07:54:00,rvs,25.25
2022-03-20T07:55:00,rvs,14.64
2022-03-20T07:56:00,rvs,14.27
2022-03-20T07:57:00,rvs,13.85
2022-03-20T07:58:00,rvs,13.90
2022-03-20T07:59:00,rvs,14.37
2022-03-20T08:00:00,rvs,17.55
2022-03-20T08:01:00,rvs,18.97
2022-03-20T08:02:00,rvs,19.71
2022-03-20T08:03:00,rvs,15.56
2022-03-20T08:04:00,rvs,14.67
2022-03-20T08:05:00,rvs,21.18
2022-03-20T08:06:00,rvs,21.39
2022-03-20T08:07:00,rvs,21.41
2022-03-20T08:08:00,rvs,21.00
2022-03-20T08:09:00,rvs,25.05
2022-03-20T08:10:00,rvs,26.08
2022-03-20T08:11:00,rvs,26.43
2022-03-20T08:12:00,rvs,27.99
2022-03-20T08:13:00,rvs,28.51
2022-03-20T08:14:00,rvs,28.50
2022-03-20T08:15:00,rvs,28.92
2022-03-20T08:16:00,rvs,21.80
2022-03-20T08:17:00,rvs,13.71
2022-03-20T08:18:00,rvs,13.68
2022-03-20T08:19:00,rvs,13.83
2022-03-20T08:20:00,rvs,13.74
2022-03-20T08:21:00,rvs,13.79
2022-03-20T08:22:00,rvs,13.57
2022-03-20T08:23:00,rvs,20.93
2022-03-20T08:24:00,rvs,20.53
2022-03-20T08:25:00,rvs,20.34
2022-03-20T08:26:00,rvs,20.43
2022-03-20T08:27:00,rvs,20.49
2022-03-20T08:28:00,rvs,13.57
2022-03-20T08:29:00,rvs,13.78
2022-03-20T08:30:00,rvs,13.71
2022-03-20T08:31:00,rvs,19.15
2022-03-20T08:32:00,rvs,20.71
2022-03-20T08:33:00,rvs,20.71
2022-03-20T08:34:00,rvs,20.71
2022-03-20T08:35:00,rvs,11.80
2022-03-20T08:36:00,rvs,17.34
2022-03-20T08:37:00,rvs,20.78
2022-03-20T08:38:00,rvs,22.35
2022-03-20T08:39:00,rvs,24.19
2022-03-20T08:40:00,rvs,23.04
2022-03-20T08:41:00,rvs,24.20
2022-03-20T08:42:00,rvs,22.63
2022-03-20T08:43:00,rvs,22.67
2022-03-20T08:44:00,rvs,15.09
2022-03-20T08:45:00,rvs,14.98
2022-03-20T08:46:00,rvs,14.97
2022-03-20T08:47:00,rvs,15.07
2022-03-20T08:48:00,rvs,14.95
2022-03-20T08:49:00,rvs,14.61
2022-03-20T08:50:00,rvs,14.23
2022-03-20T08:51:00,rvs,14.24
2022-03-20T08:52:00,rvs,14.25
2022-03-20T08:53:00,rvs,13.97
2022-03-20T08:54:00,rvs,9.04
2022-03-20T08:55:00,rvs,13.24
2022-03-20T08:56:00,rvs,13.65
2022-03-20T08:57:00,rvs,14.40
2022-03-20T08:58:00,rvs,15.90
2022-03-20T08:59:00,rvs,15.35
2022-03-20T09:00:00,rvs,15.18
2022-03-20T09:01:00,rvs,13.43
2022-03-20T09:02:00,rvs,9.62
2022-03-20T09:03:00,rvs,9.76
2022-03-20T09:04:00,rvs,9.84
2022-03-20T09:05:00,rvs,9.23
2022-03-20T09:06:00,rvs,9.23
2022-03-20T09:07:00,rvs,9.14
2022-03-20T09:08:00,rvs,9.03
2022-03-20T09:09:00,rvs,9.11
2022-03-20T09:10:00,rvs,9.19
2022-03-20T09:11:00,rvs,9.12
2022-03-20T09:12:00,rvs,9.21
2022-03-20T09:13:00,rvs,9.27
2022-03-20T09:14:00,rvs,10.88
2022-03-20T09:15:00,rvs,13.09
2022-03-20T09:16:00,rvs,14.34
2022-03-20T09:17:00,rvs,15.80
2022-03-20T09:18:00,rvs,16.19
2022-03-20T09:19:00,rvs,15.05
2022-03-20T09:20:00,rvs,14.19
2022-03-20T09:21:00,rvs,16.23
2022-03-20T09:22:00,rvs,17.69
2022-03-20T09:23:00,rvs,18.60
2022-03-20T09:24:00,rvs,19.50
2022-03-20T09:25:00,rvs,21.37
2022-03-20T09:26:00,rvs,21.70
2022-03-20T09:27:00,rvs,21.38
2022-03-20T09:28:00,rvs,20.76
2022-03-20T09:29:00,rvs,19.85
2022-03-20T09:30:00,rvs,20.16
2022-03-20T09:31:00,rvs,19.80
2022-03-20T09:32:00,rvs,20.27
2022-03-20T09:33:00,rvs,20.46
2022-03-20T09:34:00,rvs,24.63
2022-03-20T09:35:00,rvs,18.96
2022-03-20T09:36:00,rvs,19.02
2022-03-20T09:37:00,rvs,19.36
2022-03-20T09:38:00,rvs,14.30
2022-03-20T09:39:00,rvs,14.08
2022-03-20T09:40:00,rvs,14.59
2022-03-20T09:41:00,rvs,14.74
2022-03-20T09:42:00,rvs,14.10
2022-03-20T09:43:00,rvs,14.83
2022-03-20T09:44:00,rvs,14.91
2022-03-20T09:45:00,rvs,14.95
2022-03-20T09:46:00,rvs,14.98
2022-03-20T09:47:00,rvs,15.72
2022-03-20T09:48:00,rvs,14.63
2022-03-20T09:49:00,rvs,15.15
2022-03-20T09:50:00,rvs,15.54
2022-03-20T09:51:00,rvs,15.33
2022-03-20T09:52:00,rvs,14.49
2022-03-20T09:53:00,rvs,16.63
2022-03-20T09:54:00,rvs,18.28
2022-03-20T09:55:00,rvs,20.16
2022-03-20T09:56:00,rvs,15.58
2022-03-20T09:57:00,rvs,15.01
2022-03-20T09:58:00,rvs,14.70
2022-03-20T09:59:00,rvs,14.18
2022-03-20T10:00:00,rvs,14.13
2022-03-20T10:01:00,rvs,14.21
2022-03-20T10:02:00,rvs,15.01
2022-03-20T10:03:00,rvs,19.25
2022-03-20T10:04:00,rvs,19.84
2022-03-20T10:05:00,rvs,20.11
2022-03-20T10:06:00,rvs,19.86
2022-03-20T10:07:00,rvs,19.98
2022-03-20T10:08:00,rvs,19.67
2022-03-20T10:09:00,rvs,9.39
2022-03-20T10:10:00,rvs,9.58
2022-03-20T10:11:00,rvs,9.65
2022-03-20T10:12:00,rvs,9.65
2022-03-20T10:13:00,rvs,9.69
2022-03-20T10:14:00,rvs,9.63
2022-03-20T10:15:00,rvs,27.82
2022-03-20T10:16:00,rvs,13.25
2022-03-20T10:17:00,rvs,14.82
2022-03-20T10:18:00,rvs,14.52
2022-03-20T10:19:00,rvs,18.82
2022-03-20T10:20:00,rvs,20.13
2022-03-20T10:21:00,rvs,18.61
2022-03-20T10:22:00,rvs,21.84
2022-03-20T10:23:00,rvs,17.15
2022-03-20T10:24:00,rvs,17.67
2022-03-20T10:25:00,rvs,16.55
2022-03-20T10:26:00,rvs,16.30
2022-03-20T10:27:00,rvs,32.58
2022-03-20T10:28:00,rvs,36.07
2022-03-20T10:29:00,rvs,35.91
2022-03-20T10:30:00,rvs,35.61
2022-03-20T10:31:00,rvs,17.42
2022-03-20T10:32:00,rvs,13.12
2022-03-20T10:33:00,rvs,13.95
2022-03-20T10:34:00,rvs,14.83
2022-03-20T10:35:00,rvs,21.10
2022-03-20T10:36:00,rvs,20.76
2022-03-20T10:37:00,rvs,22.56
2022-03-20T10:38:00,rvs,25.36
2022-03-20T10:39:00,rvs,26.43
2022-03-20T10:40:00,rvs,24.05
2022-03-20T10:41:00,rvs,19.20
2022-03-20T10:42:00,rvs,23.08
2022-03-20T10:43:00,rvs,21.11
2022-03-20T10:44:00,rvs,22.84
2022-03-20T10:45:00,rvs,22.71
2022-03-20T10:46:00,rvs,21.99
2022-03-20T10:47:00,rvs,22.59
2022-03-20T10:48:00,rvs,22.63
2022-03-20T10:49:00,rvs,22.46
2022-03-20T10:50:00,rvs,22.60
2022-03-20T10:51:00,rvs,35.11
2022-03-20T10:52:00,rvs,22.62
2022-03-20T10:53:00,rvs,22.27
2022-03-20T10:54:00,rvs,22.16
2022-03-20T10:55:00,rvs,9.91
2022-03-20T10:56:00,rvs,9.52
2022-03-20T10:57:00,rvs,9.70
2022-03-20T10:58:00,rvs,9.09
2022-03-20T10:59:00,rvs,9.16
2022-03-20T11:00:00,rvs,9.76
2022-03-20T11:01:00,rvs,9.46
2022-03-20T11:02:00,rvs,10.69
2022-03-20T11:03:00,rvs,16.80
2022-03-20T11:04:00,rvs,17.12
2022-03-20T11:05:00,rvs,18.64
2022-03-20T11:06:00,rvs,20.13
2022-03-20T11:07:00,rvs,21.61
2022-03-20T11:08:00,rvs,19.75
2022-03-20T11:09:00,rvs,20.68
2022-03-20T11:10:00,rvs,20.42
2022-03-20T11:11:00,rvs,19.32
2022-03-20T11:12:00,rvs,18.73
2022-03-20T11:13:00,rvs,18.86
2022-03-20T11:14:00,rvs,24.53
2022-03-20T11:15:00,rvs,27.22
2022-03-20T11:16:00,rvs,28.94
2022-03-20T11:17:00,rvs,30.07
2022-03-20T11:18:00,rvs,27.52
2022-03-20T11:19:00,rvs,24.90
2022-03-20T11:20:00,rvs,21.66
2022-03-20T11:21:00,rvs,22.30
2022-03-20T11:22:00,rvs,23.67
2022-03-20T11:23:00,rvs,18.45
2022-03-20T11:24:00,rvs,18.25
2022-03-20T11:25:00,rvs,18.24
2022-03-20T11:26:00,rvs,18.41
2022-03-20T11:27:00,rvs,18.15
2022-03-20T11:28:00,rvs,17.99
2022-03-20T11:29:00,rvs,18.42
2022-03-20T11:30:00,rvs,22.07
2022-03-20T11:31:00,rvs,26.29
2022-03-20T11:32:00,rvs,27.44
2022-03-20T11:33:00,rvs,28.55
2022-03-20T11:34:00,rvs,35.43
2022-03-20T11:35:00,rvs,33.80
2022-03-20T11:36:00,rvs,38.74
2022-03-20T11:37:00,rvs,40.52
2022-03-20T11:38:00,rvs,37.51
2022-03-20T11:39:00,rvs,34.57
2022-03-20T11:40:00,rvs,19.59
2022-03-20T11:41:00,rvs,13.33
2022-03-20T11:42:00,rvs,13.52
2022-03-20T11:43:00,rvs,9.83
2022-03-20T11:44:00,rvs,9.78
2022-03-20T11:45:00,rvs,9.50
2022-03-20T11:46:00,rvs,9.58
2022-03-20T11:47:00,rvs,13.73
2022-03-20T11:48:00,rvs,13.70
2022-03-20T11:49:00,rvs,13.60
2022-03-20T11:50:00,rvs,9.64
2022-03-20T11:51:00,rvs,9.69
2022-03-20T11:52:00,rvs,9.69
2022-03-20T11:53:00,rvs,17.58
2022-03-20T11:54:00,rvs,17.75
2022-03-20T11:55:00,rvs,18.06
2022-03-20T11:56:00,rvs,14.74
2022-03-20T11:57:00,rvs,15.69
2022-03-20T11:58:00,rvs,15.28
2022-03-20T11:59:00,rvs,14.79
2022-03-20T12:00:00,rvs,14.23
2022-03-20T12:01:00,rvs,10.02
2022-03-20T12:02:00,rvs,9.94
2022-03-20T12:03:00,rvs,9.91
2022-03-20T12:04:00,rvs,9.74
2022-03-20T12:05:00,rvs,9.52
2022-03-20T12:06:00,rvs,13.48
2022-03-20T12:07:00,rvs,13.92
2022-03-20T12:08:00,rvs,14.23
2022-03-20T12:09:00,rvs,15.09
2022-03-20T12:10:00,rvs,15.17
2022-03-20T12:11:00,rvs,14.06
2022-03-20T12:12:00,rvs,12.70
2022-03-20T12:13:00,rvs,8.86
2022-03-20T12:14:00,rvs,8.96
2022-03-20T12:15:00,rvs,8.94
2022-03-20T12:16:00,rvs,9.59
2022-03-20T12:17:00,rvs,9.71
2022-03-20T12:18:00,rvs,9.61
2022-03-20T12:19:00,rvs,13.33
2022-03-20T12:20:00,rvs,13.83
2022-03-20T12:21:00,rvs,14.27
2022-03-20T12:22:00,rvs,14.69
2022-03-20T12:23:00,rvs,15.09
2022-03-20T12:24:00,rvs,14.63
2022-03-20T12:25:00,rvs,14.46
2022-03-20T12:26:00,rvs,9.77
2022-03-20T12:27:00,rvs,9.80
2022-03-20T12:28:00,rvs,9.66
2022-03-20T12:29:00,rvs,9.77
2022-03-20T12:30:00,rvs,10.09
2022-03-20T12:31:00,rvs,10.08
2022-03-20T12:32:00,rvs,10.23
2022-03-20T12:33:00,rvs,14.49
2022-03-20T12:34:00,rvs,14.51
2022-03-20T12:35:00,rvs,14.56
2022-03-20T12:36:00,rvs,14.41
2022-03-20T12:37:00,rvs,10.00
2022-03-20T12:38:00,rvs,10.10
2022-03-20T12:39:00,rvs,10.04
2022-03-20T12:40:00,rvs,10.19
2022-03-20T12:41:00,rvs,10.20
2022-03-20T12:42:00,rvs,10.27
2022-03-20T12:43:00,rvs,10.04
2022-03-20T12:44:00,rvs,10.14
2022-03-20T12:45:00,rvs,10.05
2022-03-20T12:46:00,rvs,10.13
2022-03-20T12:47:00,rvs,10.11
2022-03-20T12:48:00,rvs,10.43
2022-03-20T12:49:00,rvs,10.04
2022-03-20T12:50:00,rvs,9.97
2022-03-20T12:51:00,rvs,10.18
2022-03-20T12:52:00,rvs,9.96
2022-03-20T12:53:00,rvs,9.86
2022-03-20T12:54:00,rvs,9.67
2022-03-20T12:55:00,rvs,9.75
2022-03-20T12:56:00,rvs,9.14
2022-03-20T12:57:00,rvs,9.14
2022-03-20T12:58:00,rvs,9.08
2022-03-20T12:59:00,rvs,9.23
2022-03-20T13:00:00,rvs,9.15
2022-03-20T13:01:00,rvs,9.30
2022-03-20T13:02:00,rvs,9.47
2022-03-20T13:03:00,rvs,9.26
2022-03-20T13:04:00,rvs,9.18
2022-03-20T13:05:00,rvs,13.66
2022-03-20T13:06:00,rvs,14.35
2022-03-20T13:07:00,rvs,14.98
2022-03-20T13:08:00,rvs,15.67
2022-03-20T13:09:00,rvs,16.04
2022-03-20T13:10:00,rvs,14.16
2022-03-20T13:11:00,rvs,12.66
2022-03-20T13:12:00,rvs,11.98
2022-03-20T13:13:00,rvs,14.20
2022-03-20T13:14:00,rvs,17.57
2022-03-20T13:15:00,rvs,18.49
2022-03-20T13:16:00,rvs,23.91
2022-03-20T13:17:00,rvs,42.84
2022-03-20T13:18:00,rvs,44.23
2022-03-20T13:19:00,rvs,45.31
2022-03-20T13:20:00,rvs,45.36
2022-03-20T13:21:00,rvs,46.17
2022-03-20T13:22:00,rvs,46.59
2022-03-20T13:23:00,rvs,51.12